Weather History for Victoria, TX

Change the Weather History Date:

Wednesday, May 13, 2009

  Actual Average Record
Temperature  
Mean Temperature 83 °F 76 °F  
Max Temperature 90 °F 86 °F 94 °F (1980)
Min Temperature 75 °F 67 °F 52 °F (1960)
Degree Days  
Heating Degree Days 0 0  
Month to date heating degree days 0 0  
Since 1 July heating degree days 1067 1248  
Cooling Degree Days 18 11  
Month to date cooling degree days 212 130  
Year to date cooling degree days 606 419  
Growing Degree Days 32 (Base 50)    
Moisture  
Dew Point 72 °F    
Average Humidity 71    
Maximum Humidity 94    
Minimum Humidity 47    
Precipitation  
Precipitation 0.00 in 0.17 in 3.63 in (2004)
Month to date precipitation T 2.03  
Year to date precipitation 4.15 12.22  
Snow  
Snow 0.00 in - - ()
Month to date snowfall 0.0  
Since 1 July snowfall 0.0  
Snow Depth 0.00 in    
Sea Level Pressure  
Sea Level Pressure 29.88 in    
Wind  
Wind Speed 17 mph (SSE)    
Max Wind Speed 31 mph    
Max Gust Speed 38 mph    
Visibility 8 miles    
Events      
T = Trace of Precipitation, MM = Missing Value Source: NWS Daily Summary

Daily Weather History Graph

Daily Weather History Graph

Search for Another Location

Airport:

Trip Planner

Search our weather history database for the weather conditions in past years. The results will help you decide how hot, cold, wet, or windy it might be!

Date:

Astronomy

May. 13, 2009 Rise Set
Actual Time 6:37 AM CDT 8:10 PM CDT
Civil Twilight 6:11 AM CDT 8:36 PM CDT
Nautical Twilight 5:41 AM CDT 9:07 PM CDT
Astronomical Twilight 5:08 AM CDT 9:39 PM CDT
Moon No Moon Rise 9:59 AM CDT (5/13)
Length of Visible Light 14h 24m
Length of Day
13h 33m
Waning Gibbous, 82% of the Moon is Illuminated
May 13
Waning Gibbous
May 17
Last Quarter
May 24
New
May 30
First Quarter
Jun 7
Full

Hourly Weather History & Observations

Time (CDT) Temp. Heat Index Dew Point Humidity Pressure Visibility Wind Dir Wind Speed Gust Speed Precip Events Conditions
12:51 AM 75.0 °F - 72.0 °F 90% 29.89 in 10.0 mi SE 11.5 mph - N/A   Clear
1:51 AM 75.9 °F - 73.0 °F 91% 29.88 in 9.0 mi SSE 13.8 mph - N/A   Clear
2:32 AM 75.2 °F - 73.4 °F 94% 29.89 in 9.0 mi SSE 12.7 mph - N/A   Mostly Cloudy
2:51 AM 77.0 °F - 73.0 °F 88% 29.88 in 9.0 mi SSE 10.4 mph - N/A   Overcast
3:36 AM 77.0 °F - 73.4 °F 89% 29.88 in 9.0 mi SSE 11.5 mph - N/A   Overcast
3:51 AM 78.1 °F - 73.0 °F 84% 29.87 in 9.0 mi SSE 13.8 mph - N/A   Mostly Cloudy
4:12 AM 78.8 °F - 73.4 °F 83% 29.88 in 8.0 mi SSE 10.4 mph - N/A   Mostly Cloudy
4:39 AM 78.8 °F - 73.4 °F 83% 29.87 in 8.0 mi SSE 12.7 mph - N/A   Overcast
4:51 AM 78.1 °F - 73.9 °F 87% 29.86 in 7.0 mi SSE 13.8 mph - N/A   Mostly Cloudy
5:51 AM 78.1 °F - 73.0 °F 84% 29.87 in 7.0 mi SSE 13.8 mph - N/A   Mostly Cloudy
6:09 AM 78.8 °F - 73.4 °F 83% 29.87 in 7.0 mi South 15.0 mph - N/A   Overcast
6:51 AM 77.0 °F - 73.0 °F 88% 29.89 in 4.0 mi South 11.5 mph - N/A   Mostly Cloudy
7:18 AM 78.8 °F - 73.4 °F 83% 29.89 in 4.0 mi South 13.8 mph - N/A   Haze
7:51 AM 78.1 °F - 73.0 °F 84% 29.89 in 4.0 mi SSE 15.0 mph - N/A   Haze
8:37 AM 80.6 °F 85.4 °F 73.4 °F 79% 29.90 in 5.0 mi South 17.3 mph 24.2 mph N/A   Haze
8:46 AM 80.6 °F 85.4 °F 73.4 °F 79% 29.90 in 5.0 mi South 18.4 mph 25.3 mph N/A   Haze
8:51 AM 80.1 °F 84.2 °F 73.0 °F 79% 29.90 in 5.0 mi South 16.1 mph - N/A   Haze
9:51 AM 82.0 °F 86.7 °F 72.0 °F 71% 29.90 in 8.0 mi South 15.0 mph 25.3 mph N/A   Overcast
10:38 AM 82.4 °F 87.2 °F 71.6 °F 70% 29.91 in 9.0 mi South 18.4 mph 28.8 mph N/A   Overcast
10:51 AM 82.9 °F 88.0 °F 72.0 °F 69% 29.90 in 9.0 mi SSE 19.6 mph 26.5 mph N/A   Overcast
11:01 AM 82.4 °F 88.2 °F 73.4 °F 74% 29.91 in 8.0 mi SSE 20.7 mph - N/A   Overcast
11:51 AM 84.9 °F 91.4 °F 73.0 °F 67% 29.91 in 9.0 mi SSE 19.6 mph 25.3 mph N/A   Mostly Cloudy
12:23 PM 86.0 °F 93.4 °F 73.4 °F 66% 29.91 in 10.0 mi SSE 19.6 mph 28.8 mph N/A   Mostly Cloudy
12:34 PM 87.8 °F 95.6 °F 73.4 °F 62% 29.90 in 10.0 mi SSE 24.2 mph 29.9 mph N/A   Scattered Clouds
12:51 PM 87.1 °F 94.5 °F 73.0 °F 63% 29.90 in 10.0 mi SSE 21.9 mph 28.8 mph N/A   Mostly Cloudy
1:51 PM 88.0 °F 94.7 °F 72.0 °F 59% 29.88 in 10.0 mi South 24.2 mph 32.2 mph N/A   Scattered Clouds
2:51 PM 87.1 °F 92.8 °F 71.1 °F 59% 29.86 in 10.0 mi SSE 26.5 mph 38.0 mph N/A   Scattered Clouds
3:51 PM 89.1 °F 92.9 °F 68.0 °F 50% 29.84 in 10.0 mi SSE 25.3 mph 35.7 mph N/A   Partly Cloudy
4:51 PM 89.1 °F 91.3 °F 66.0 °F 46% 29.83 in 10.0 mi South 26.5 mph 33.4 mph N/A   Clear
5:51 PM 87.1 °F 90.6 °F 68.0 °F 53% 29.82 in 10.0 mi SSE 23.0 mph 35.7 mph N/A   Clear
6:51 PM 82.9 °F 86.5 °F 69.1 °F 63% 29.83 in 10.0 mi SSE 24.2 mph 31.1 mph N/A   Clear
7:51 PM 80.1 °F 83.2 °F 70.0 °F 71% 29.84 in 10.0 mi SSE 17.3 mph - N/A   Clear
8:51 PM 78.1 °F - 70.0 °F 76% 29.86 in 10.0 mi SSE 15.0 mph - N/A   Clear
9:51 PM 77.0 °F - 70.0 °F 79% 29.88 in 10.0 mi SSE 12.7 mph - N/A   Clear
10:51 PM 75.9 °F - 71.1 °F 85% 29.91 in 10.0 mi SE 12.7 mph - N/A   Clear
11:51 PM 75.0 °F - 71.1 °F 87% 29.92 in 10.0 mi SE 10.4 mph - N/A   Clear